FW9306 Weather Reports


Display with metric or nautical units.
time (UTC)temp
F
wind
direction
speed
MPH
gust
MPH
rain 1hr
in
rain 24hr
in
rain mn
in
humidity
%
barometer
mb
20260906082118 81 201 2.0 3.0 0.00 0.00 0.00 52 1012.8
20260906081614 80 193 0.0 0.0 0.00 0.00 0.00 53 1012.9
20260906081109 81 189 1.0 1.0 0.00 0.00 0.00 52 1013.0
20260906080605 81 190 0.0 0.0 0.00 0.00 0.00 52 1013.0
20260906075555 81 198 0.0 1.0 0.00 0.00 0.00 53 1013.3
20260906075050 81 157 2.0 3.0 0.00 0.00 0.00 53 1013.2
20260906074545 80 207 2.0 2.0 0.00 0.00 0.00 53 1013.1
20260906074043 81 190 1.0 1.0 0.00 0.00 0.00 53 1013.3
20260906073538 81 201 2.0 2.0 0.00 0.00 0.00 52 1013.3
20260906073034 81 191 1.0 1.0 0.00 0.00 0.00 52 1013.2
20260906072529 81 192 0.0 0.0 0.00 0.00 0.00 52 1013.3
20260906072025 81 190 0.0 0.0 0.00 0.00 0.00 52 1013.5
20260906071521 81 179 0.0 0.0 0.00 0.00 0.00 52 1013.4
20260906071016 81 146 1.0 1.0 0.00 0.00 0.00 51 1013.2
20260906070512 81 117 2.0 2.0 0.00 0.00 0.00 51 1013.5
20260906070008 81 160 0.0 0.0 0.00 0.00 0.00 51 1013.4
20260906065502 81 178 1.0 1.0 0.00 0.00 0.00 51 1013.5
20260906064957 82 192 0.0 1.0 0.00 0.00 0.00 51 1013.3
20260906064454 82 192 2.0 2.0 0.00 0.00 0.00 50 1013.1
20260906063954 82 187 0.0 0.0 0.00 0.00 0.00 49 1013.2
20260906063449 82 128 1.0 1.0 0.00 0.00 0.00 50 1013.3
20260906062949 82 181 0.0 0.0 0.00 0.00 0.00 50 1013.3
20260906062444 82 141 2.0 3.0 0.00 0.00 0.00 50 1013.6
20260906061939 83 176 0.0 0.0 0.00 0.00 0.00 49 1013.1
20260906061435 83 176 0.0 0.0 0.00 0.00 0.00 48 1013.4
20260906060930 83 183 0.0 0.0 0.00 0.00 0.00 48 1013.2
20260906060427 83 177 0.0 1.0 0.00 0.00 0.00 48 1013.4
20260906055923 84 189 0.0 0.0 0.00 0.00 0.00 47 1013.5
20260906055419 84 139 1.0 1.0 0.00 0.00 0.00 47 1013.3
20260906054914 83 166 1.0 2.0 0.00 0.00 0.00 48 1013.2
20260906054408 84 190 0.0 0.0 0.00 0.00 0.00 47 1013.4
20260906053905 84 192 0.0 0.0 0.00 0.00 0.00 47 1013.5
20260906053400 85 178 0.0 0.0 0.00 0.00 0.00 46 1013.3
20260906052856 85 192 0.0 0.0 0.00 0.00 0.00 45 1013.4
20260906052352 85 200 0.0 0.0 0.00 0.00 0.00 45 1013.4
20260906051849 86 182 0.0 0.0 0.00 0.00 0.00 45 1013.5
20260906051348 86 184 1.0 2.0 0.00 0.00 0.00 44 1013.3
20260906050844 85 192 1.0 1.0 0.00 0.00 0.00 45 1013.6
20260906050339 86 213 0.0 0.0 0.00 0.00 0.00 44 1013.5
20260906045838 86 296 1.0 1.0 0.00 0.00 0.00 43 1013.4
20260906045332 86 284 1.0 1.0 0.00 0.00 0.00 43 1013.6
20260906044828 87 198 0.0 0.0 0.00 0.00 0.00 43 1013.5
20260906044323 87 236 1.0 2.0 0.00 0.00 0.00 42 1013.5
20260906043819 87 342 1.0 1.0 0.00 0.00 0.00 42 1013.5
20260906043315 87 241 1.0 1.0 0.00 0.00 0.00 42 1013.3
20260906042814 87 203 0.0 1.0 0.00 0.00 0.00 43 1013.4
20260906042314 87 246 2.0 2.0 0.00 0.00 0.00 42 1013.4
20260906041809 88 215 1.0 1.0 0.00 0.00 0.00 42 1013.6
20260906041304 88 309 1.0 2.0 0.00 0.00 0.00 41 1013.5
20260906040759 88 322 1.0 1.0 0.00 0.00 0.00 41 1013.3
20260906040255 88 172 1.0 2.0 0.00 0.00 0.00 41 1013.4
20260906035750 88 310 3.0 5.0 0.00 0.00 0.00 41 1013.5
20260906035245 89 244 1.0 1.0 0.00 0.00 0.00 41 1013.6
20260906034746 88 318 1.0 2.0 0.00 0.00 0.00 41 1013.4
20260906034240 89 296 1.0 2.0 0.00 0.00 0.00 41 1013.3
20260906033737 89 242 2.0 2.0 0.00 0.00 0.00 41 1013.5
20260906033236 89 263 1.0 1.0 0.00 0.00 0.00 41 1013.2
20260906032733 89 10 4.0 5.0 0.00 0.00 0.00 41 1013.3
20260906032232 89 205 1.0 2.0 0.00 0.00 0.00 40 1012.9
20260906031727 89 342 1.0 2.0 0.00 0.00 0.00 40 1013.1
20260906031223 89 230 1.0 1.0 0.00 0.00 0.00 40 1013.3
20260906030723 89 330 2.0 2.0 0.00 0.00 0.00 40 1013.1
20260906030218 89 345 4.0 6.0 0.00 0.00 0.00 40 1013.0
20260906025717 89 197 1.0 1.0 0.00 0.00 0.00 40 1013.0
20260906025212 89 282 2.0 2.0 0.00 0.00 0.00 40 1012.7
20260906024711 89 2 2.0 2.0 0.00 0.00 0.00 40 1012.4
20260906024210 90 311 4.0 7.0 0.00 0.00 0.00 39 1012.7
20260906023706 90 352 3.0 3.0 0.00 0.00 0.00 39 1012.8
20260906023201 90 309 2.0 2.0 0.00 0.00 0.00 39 1012.8
20260906022656 90 337 5.0 6.0 0.00 0.00 0.00 39 1012.5
20260906022152 90 332 2.0 3.0 0.00 0.00 0.00 39 1012.4
20260906021647 90 320 6.0 7.0 0.00 0.00 0.00 38 1012.4
20260906021146 90 22 3.0 3.0 0.00 0.00 0.00 39 1012.3
20260906020641 90 321 5.0 7.0 0.00 0.00 0.00 40 1012.5
20260906020136 90 264 3.0 5.0 0.00 0.00 0.00 39 1012.3
20260906015630 90 325 5.0 6.0 0.00 0.00 0.00 38 1012.2
20260906015128 90 300 6.0 7.0 0.00 0.00 0.00 39 1012.4
20260906014623 91 315 5.0 7.0 0.00 0.00 0.00 39 1012.3
20260906014120 91 283 3.0 5.0 0.00 0.00 0.00 39 1012.3
20260906013614 91 326 3.0 3.0 0.00 0.00 0.00 39 1012.4
20260906013110 91 342 3.0 3.0 0.00 0.00 0.00 39 1012.3
20260906012604 91 297 3.0 5.0 0.00 0.00 0.00 39 1012.1
20260906012059 91 317 6.0 7.0 0.00 0.00 0.00 38 1012.2
20260906011555 91 323 3.0 6.0 0.00 0.00 0.00 38 1012.1
20260906011055 91 337 6.0 9.0 0.00 0.00 0.00 38 1012.4
20260906010550 92 289 5.0 5.0 0.00 0.00 0.00 38 1012.2
20260906010046 91 334 9.0 11.0 0.00 0.00 0.00 39 1012.2
20260906005545 92 311 5.0 8.0 0.00 0.00 0.00 38 1012.2
20260906005045 93 262 5.0 6.0 0.00 0.00 0.00 37 1012.4
20260906004544 93 193 7.0 9.0 0.00 0.00 0.00 37 1012.5
20260906004039 92 180 9.0 11.0 0.00 0.00 0.00 37 1012.1
20260906003534 93 313 4.0 6.0 0.00 0.00 0.00 40 1012.3
20260906003030 94 307 9.0 10.0 0.00 0.00 0.00 35 1012.4
20260906002525 94 258 11.0 11.0 0.00 0.00 0.00 35 1012.3
20260906002020 94 126 8.0 8.0 0.00 0.00 0.00 35 1012.5
20260906001515 94 318 6.0 8.0 0.00 0.00 0.00 35 1012.2
20260906001010 94 277 3.0 5.0 0.00 0.00 0.00 35 1012.4
20260906000506 94 330 7.0 9.0 0.00 0.00 0.00 34 1012.1
20260906000000 94 326 7.0 8.0 0.00 0.00 0.00 34 1012.3
20260905235500 94 345 4.0 5.0 0.00 0.00 0.00 35 1012.3
20260905234955 95 317 8.0 13.0 0.00 0.00 0.00 35 1012.4
20260905234450 95 282 8.0 13.0 0.00 0.00 0.00 34 1012.4
20260905233944 94 323 8.0 9.0 0.00 0.00 0.00 35 1012.1
20260905233440 95 302 5.0 8.0 0.00 0.00 0.00 34 1012.2
20260905232938 95 324 6.0 7.0 0.00 0.00 0.00 34 1012.2
20260905232435 95 315 9.0 11.0 0.00 0.00 0.00 34 1012.4
20260905231930 96 323 4.0 5.0 0.00 0.00 0.00 33 1012.0
20260905231426 95 327 5.0 7.0 0.00 0.00 0.00 34 1012.3
20260905230922 95 222 6.0 7.0 0.00 0.00 0.00 34 1012.3
20260905230421 95 337 4.0 5.0 0.00 0.00 0.00 34 1012.1
20260905225919 95 343 5.0 8.0 0.00 0.00 0.00 35 1012.5
20260905225414 94 211 6.0 7.0 0.00 0.00 0.00 34 1012.3
20260905224909 95 279 10.0 11.0 0.00 0.00 0.00 34 1012.4
20260905224405 95 282 7.0 7.0 0.00 0.00 0.00 34 1012.5
20260905223859 96 326 6.0 7.0 0.00 0.00 0.00 33 1012.4
20260905223357 95 235 10.0 11.0 0.00 0.00 0.00 34 1012.3
20260905222851 95 325 8.0 9.0 0.00 0.00 0.00 34 1012.4
20260905222350 95 337 5.0 6.0 0.00 0.00 0.00 34 1012.7
20260905221847 94 50 3.0 3.0 0.00 0.00 0.00 35 1012.5
20260905221343 95 279 7.0 8.0 0.00 0.00 0.00 35 1012.5
20260905220839 95 217 2.0 2.0 0.00 0.00 0.00 35 1012.7
20260905220335 95 355 10.0 11.0 0.00 0.00 0.00 34 1012.9
20260905215834 95 309 3.0 5.0 0.00 0.00 0.00 34 1012.7
20260905215330 95 304 7.0 8.0 0.00 0.00 0.00 35 1013.0
20260905214826 95 197 9.0 11.0 0.00 0.00 0.00 35 1013.0
20260905214321 95 301 7.0 8.0 0.00 0.00 0.00 34 1013.0
20260905213816 95 255 3.0 5.0 0.00 0.00 0.00 34 1013.1
20260905213312 94 304 4.0 6.0 0.00 0.00 0.00 35 1013.0
20260905212807 95 287 6.0 7.0 0.00 0.00 0.00 34 1013.2
20260905212307 95 35 2.0 2.0 0.00 0.00 0.00 35 1013.2
20260905211801 95 293 5.0 6.0 0.00 0.00 0.00 34 1013.5
20260905211256 94 31 3.0 3.0 0.00 0.00 0.00 34 1013.6
20260905210753 94 244 8.0 8.0 0.00 0.00 0.00 35 1013.6
20260905210252 94 246 7.0 8.0 0.00 0.00 0.00 34 1013.5
20260905205751 96 331 3.0 3.0 0.00 0.00 0.00 33 1013.8
20260905205246 94 322 2.0 2.0 0.00 0.00 0.00 34 1013.7
20260905204746 95 214 8.0 9.0 0.00 0.00 0.00 33 1013.6
20260905204242 94 326 3.0 3.0 0.00 0.00 0.00 34 1013.7
20260905203741 94 309 4.0 5.0 0.00 0.00 0.00 35 1013.8
20260905203237 93 292 5.0 5.0 0.00 0.00 0.00 36 1014.0
20260905202732 93 313 4.0 5.0 0.00 0.00 0.00 36 1014.2
20260905202227 94 253 5.0 6.0 0.00 0.00 0.00 35 1014.3
20260905201723 95 189 2.0 2.0 0.00 0.00 0.00 34 1014.3
20260905201223 94 205 1.0 2.0 0.00 0.00 0.00 36 1014.2
20260905200718 93 295 5.0 6.0 0.00 0.00 0.00 37 1014.5
20260905200214 94 329 5.0 7.0 0.00 0.00 0.00 36 1014.5
20260905195711 94 3 2.0 2.0 0.00 0.00 0.00 37 1014.5
20260905195206 93 306 7.0 7.0 0.00 0.00 0.00 37 1014.5
20260905194702 93 258 6.0 7.0 0.00 0.00 0.00 38 1014.7
20260905194202 92 318 6.0 7.0 0.00 0.00 0.00 38 1015.1
20260905193655 93 282 6.0 7.0 0.00 0.00 0.00 38 1014.7
20260905193151 92 240 5.0 6.0 0.00 0.00 0.00 41 1014.8
20260905192646 92 273 4.0 5.0 0.00 0.00 0.00 40 1015.1
20260905192143 92 284 6.0 7.0 0.00 0.00 0.00 40 1015.0
20260905191642 91 276 5.0 6.0 0.00 0.00 0.00 41 1015.1
20260905191140 91 238 7.0 8.0 0.00 0.00 0.00 40 1015.0
20260905190639 92 292 6.0 7.0 0.00 0.00 0.00 41 1015.4
20260905190138 91 79 4.0 6.0 0.00 0.00 0.00 42 1015.3
20260905185637 91 266 5.0 6.0 0.00 0.00 0.00 41 1015.5
20260905185132 91 250 6.0 6.0 0.00 0.00 0.00 43 1015.5
20260905184626 92 347 6.0 7.0 0.00 0.00 0.00 40 1015.7
20260905184125 91 257 5.0 6.0 0.00 0.00 0.00 40 1015.8
20260905183625 91 263 6.0 7.0 0.00 0.00 0.00 40 1015.8
20260905183120 91 318 5.0 6.0 0.00 0.00 0.00 41 1015.8
20260905182620 91 17 3.0 5.0 0.00 0.00 0.00 40 1015.8
20260905182119 90 175 2.0 2.0 0.00 0.00 0.00 40 1015.9
20260905181614 91 203 2.0 2.0 0.00 0.00 0.00 39 1015.9
20260905181113 90 7 4.0 5.0 0.00 0.00 0.00 41 1016.0
20260905180608 91 250 6.0 8.0 0.00 0.00 0.00 41 1016.0
20260905180104 90 240 4.0 6.0 0.00 0.00 0.00 42 1015.9
20260905175603 90 20 3.0 6.0 0.00 0.00 0.00 40 1015.9
20260905175058 91 315 4.0 5.0 0.00 0.00 0.00 41 1015.9
20260905174554 90 274 3.0 3.0 0.00 0.00 0.00 40 1015.8
20260905174049 90 17 3.0 3.0 0.00 0.00 0.00 41 1016.0
20260905173546 89 21 2.0 2.0 0.00 0.00 0.00 43 1016.1
20260905173041 89 218 1.0 2.0 0.00 0.00 0.00 44 1016.0
20260905172539 89 271 3.0 5.0 0.00 0.00 0.00 45 1016.0
20260905172034 90 187 1.0 2.0 0.00 0.00 0.00 43 1015.9
20260905171531 90 270 1.0 1.0 0.00 0.00 0.00 44 1016.1
20260905171027 89 188 0.0 0.0 0.00 0.00 0.00 45 1015.9
20260905170523 88 189 2.0 2.0 0.00 0.00 0.00 45 1015.9
20260905170018 87 311 3.0 3.0 0.00 0.00 0.00 47 1016.3
20260905165513 87 152 2.0 2.0 0.00 0.00 0.00 47 1016.1
20260905165008 86 228 3.0 3.0 0.00 0.00 0.00 49 1016.2
20260905164502 86 240 2.0 2.0 0.00 0.00 0.00 49 1016.2
20260905163956 88 10 2.0 2.0 0.00 0.00 0.00 47 1016.4
20260905163453 87 173 1.0 2.0 0.00 0.00 0.00 48 1016.4
20260905162949 86 255 2.0 2.0 0.00 0.00 0.00 50 1016.2
20260905162444 86 288 5.0 5.0 0.00 0.00 0.00 50 1016.4
20260905161939 86 189 1.0 1.0 0.00 0.00 0.00 50 1016.2
20260905161438 87 173 1.0 2.0 0.00 0.00 0.00 48 1016.4
20260905160936 85 199 3.0 3.0 0.00 0.00 0.00 51 1016.3
20260905160430 86 173 3.0 3.0 0.00 0.00 0.00 50 1016.1
20260905155929 86 175 1.0 2.0 0.00 0.00 0.00 52 1016.2
20260905155425 86 197 2.0 2.0 0.00 0.00 0.00 51 1016.4
20260905154923 85 175 1.0 1.0 0.00 0.00 0.00 52 1016.2
20260905154419 85 97 1.0 1.0 0.00 0.00 0.00 53 1016.3
20260905153915 85 166 0.0 1.0 0.00 0.00 0.00 53 1016.2
20260905153411 84 156 1.0 1.0 0.00 0.00 0.00 53 1016.3
20260905152910 83 128 1.0 1.0 0.00 0.00 0.00 54 1016.1
20260905152409 82 182 1.0 2.0 0.00 0.00 0.00 58 1016.3
20260905151905 81 214 1.0 1.0 0.00 0.00 0.00 60 1016.3
20260905151401 82 203 1.0 1.0 0.00 0.00 0.00 60 1016.3
20260905150900 81 187 0.0 0.0 0.00 0.00 0.00 60 1016.2
20260905150355 81 149 1.0 1.0 0.00 0.00 0.00 59 1016.3
20260905145852 83 207 1.0 2.0 0.00 0.00 0.00 58 1016.0
20260905145346 82 163 0.0 1.0 0.00 0.00 0.00 59 1016.3
20260905144846 80 148 0.0 1.0 0.00 0.00 0.00 61 1016.3
20260905144341 80 214 2.0 2.0 0.00 0.00 0.00 63 1016.3
20260905143839 78 169 0.0 1.0 0.00 0.00 0.00 65 1016.4
20260905143334 78 202 1.0 2.0 0.00 0.00 0.00 66 1016.1
20260905142833 78 187 3.0 3.0 0.00 0.00 0.00 65 1016.2
20260905142327 78 194 1.0 1.0 0.00 0.00 0.00 66 1016.0
20260905141823 77 171 1.0 1.0 0.00 0.00 0.00 68 1016.2
20260905141318 77 155 1.0 2.0 0.00 0.00 0.00 68 1016.1
20260905140814 76 142 1.0 1.0 0.00 0.00 0.00 69 1016.0
20260905140314 76 207 0.0 0.0 0.00 0.00 0.00 70 1015.7
20260905135812 75 203 0.0 0.0 0.00 0.00 0.00 71 1016.1
20260905135309 75 203 1.0 1.0 0.00 0.00 0.00 70 1015.8
20260905134804 75 183 3.0 3.0 0.00 0.00 0.00 71 1015.8
20260905134302 75 191 3.0 3.0 0.00 0.00 0.00 71 1015.9
20260905133757 75 168 1.0 1.0 0.00 0.00 0.00 71 1015.7
20260905133253 74 178 1.0 1.0 0.00 0.00 0.00 73 1015.6
20260905132751 73 184 1.0 1.0 0.00 0.00 0.00 74 1015.5
20260905132247 73 194 0.0 0.0 0.00 0.00 0.00 75 1015.3
20260905131742 73 179 0.0 0.0 0.00 0.00 0.00 75 1015.3
20260905131237 73 191 0.0 1.0 0.00 0.00 0.00 75 1015.3
20260905130732 73 187 0.0 0.0 0.00 0.00 0.00 75 1015.1
20260905130231 73 201 0.0 0.0 0.00 0.00 0.00 75 1014.9
20260905125726 73 166 1.0 1.0 0.00 0.00 0.00 75 1014.9
20260905125221 73 181 0.0 0.0 0.00 0.00 0.00 75 1015.3
20260905124718 73 164 0.0 0.0 0.00 0.00 0.00 75 1015.1
20260905124214 73 192 0.0 0.0 0.00 0.00 0.00 75 1015.0
20260905123708 73 206 0.0 1.0 0.00 0.00 0.00 75 1014.8
20260905123205 73 186 3.0 3.0 0.00 0.00 0.00 74 1014.9
20260905122705 74 204 2.0 2.0 0.00 0.00 0.00 74 1014.7
20260905122159 73 206 2.0 2.0 0.00 0.00 0.00 74 1014.9
20260905121654 73 195 0.0 0.0 0.00 0.00 0.00 74 1014.8
20260905121150 73 173 0.0 0.0 0.00 0.00 0.00 74 1014.6
20260905120649 73 188 0.0 0.0 0.00 0.00 0.00 74 1014.7
20260905120143 74 203 0.0 0.0 0.00 0.00 0.00 74 1014.8
20260905115638 74 187 0.0 0.0 0.00 0.00 0.00 73 1014.5
20260905115133 74 200 2.0 2.0 0.00 0.00 0.00 73 1014.8
20260905114632 74 196 2.0 2.0 0.00 0.00 0.00 73 1014.5
20260905114131 74 187 1.0 1.0 0.00 0.00 0.00 73 1014.8
20260905113626 75 181 0.0 1.0 0.00 0.00 0.00 73 1014.8
20260905113121 75 198 0.0 0.0 0.00 0.00 0.00 72 1014.7
20260905112618 75 185 0.0 0.0 0.00 0.00 0.00 72 1014.6
20260905112112 75 185 0.0 0.0 0.00 0.00 0.00 72 1014.8
20260905111606 75 179 0.0 0.0 0.00 0.00 0.00 72 1014.7
20260905111105 75 184 0.0 0.0 0.00 0.00 0.00 72 1014.8
20260905110604 75 186 0.0 0.0 0.00 0.00 0.00 71 1014.7
20260905110100 75 193 0.0 0.0 0.00 0.00 0.00 71 1014.7
20260905105554 75 202 0.0 0.0 0.00 0.00 0.00 71 1014.9
20260905105054 75 203 0.0 0.0 0.00 0.00 0.00 71 1014.9
20260905104550 75 196 0.0 0.0 0.00 0.00 0.00 71 1014.7
20260905104049 75 187 0.0 0.0 0.00 0.00 0.00 71 1014.7
20260905103545 76 184 0.0 0.0 0.00 0.00 0.00 70 1014.6
20260905103041 76 186 0.0 0.0 0.00 0.00 0.00 70 1014.4
20260905102536 76 197 0.0 1.0 0.00 0.00 0.00 70 1014.7
20260905102033 76 203 0.0 0.0 0.00 0.00 0.00 69 1014.3
20260905101531 77 208 0.0 0.0 0.00 0.00 0.00 68 1014.7
20260905101029 77 179 4.0 5.0 0.00 0.00 0.00 68 1014.6
20260905100526 77 152 0.0 1.0 0.00 0.00 0.00 68 1014.7
20260905100026 77 217 1.0 1.0 0.00 0.00 0.00 68 1014.8
20260905095520 77 190 0.0 0.0 0.00 0.00 0.00 68 1014.6
20260905095015 77 197 1.0 1.0 0.00 0.00 0.00 68 1014.6
20260905094510 77 201 1.0 2.0 0.00 0.00 0.00 68 1014.7
20260905094009 77 205 1.0 2.0 0.00 0.00 0.00 68 1015.0
20260905093504 77 220 0.0 1.0 0.00 0.00 0.00 68 1014.7
20260905093001 77 165 2.0 5.0 0.00 0.00 0.00 68 1014.7
20260905092455 77 204 1.0 1.0 0.00 0.00 0.00 67 1014.6
20260905091951 77 168 0.0 0.0 0.00 0.00 0.00 67 1014.8
20260905091450 77 191 0.0 0.0 0.00 0.00 0.00 67 1014.9
20260905090950 77 202 0.0 0.0 0.00 0.00 0.00 67 1015.0
20260905090445 77 184 0.0 0.0 0.00 0.00 0.00 67 1014.8
20260905085944 77 204 0.0 0.0 0.00 0.00 0.00 67 1014.6
20260905085444 77 178 1.0 1.0 0.00 0.00 0.00 66 1014.6
20260905084940 77 186 0.0 0.0 0.00 0.00 0.00 66 1015.0
20260905084439 78 200 0.0 1.0 0.00 0.00 0.00 66 1014.8
20260905083934 78 189 0.0 0.0 0.00 0.00 0.00 65 1014.9
20260905083430 78 148 0.0 0.0 0.00 0.00 0.00 65 1015.0
20260905082925 78 169 0.0 0.0 0.00 0.00 0.00 65 1014.8
20260905082421 78 175 0.0 0.0 0.00 0.00 0.00 65 1015.0